Temperature
18 18 18 17 17 17 17 17 17 16 16 16 16 16 16 16 16 15 15 15 15 15 15 15 15 15 15 15 15 15 14 14 14 14 14 14 13 13 13 13 13 13 13
19 18 17 17 17 17 17 17 16 16 16 16 16 16 16 15 15 15 15 15 15 15 15 15 15 15 15 15 14 14 14 14 14 14 14 14 14 13 13 13 13 13 13
19 18 18 17 17 17 17 16 16 16 16 16 16 16 16 15 15 15 15 15 15 15 15 15 15 15 15 15 14 14 14 14 14 14 14 15 15 14 13 13 13 13 13
19 18 18 17 17 17 17 16 16 16 16 16 16 16 16 15 15 15 15 15 15 15 15 15 14 14 15 15 14 14 14 14 14 14 14 14 14 14 14 13 12 12 12
18 18 18 17 17 17 17 16 16 16 16 16 16 16 15 15 15 15 15 15 15 14 14 14 14 14 14 14 14 14 14 14 14 14 14 14 14 14 14 13 12 12 12
18 18 17 17 17 17 17 16 16 16 16 16 16 15 15 15 15 15 15 15 14 14 14 14 14 14 14 14 14 14 14 14 14 14 14 14 14 14 14 14 13 12 12
18 18 17 17 17 17 17 16 16 16 16 16 16 16 15 15 15 15 15 14 14 14 14 14 14 14 14 14 14 14 14 14 14 14 14 14 14 13 13 13 13 12 11
18 18 17 17 17 17 16 16 16 16 16 16 16 16 15 15 15 15 14 14 14 14 14 14 14 14 14 14 14 14 14 14 14 14 14 14 14 13 13 13 13 13 12
18 17 17 17 17 17 16 16 16 16 16 16 16 15 15 15 15 14 14 14 14 14 14 14 14 14 14 14 14 14 14 14 14 14 14 14 13 13 13 13 13 13 13
18 17 17 17 17 17 16 16 16 16 16 16 15 15 15 15 15 14 14 14 14 14 14 14 14 14 14 14 14 14 14 14 14 14 13 13 13 13 13 13 13 13 13
17 17 17 17 17 16 16 16 16 16 16 16 15 15 15 15 14 14 14 14 14 14 14 14 14 14 14 14 14 13 14 13 13 13 13 13 13 13 13 13 12 12 12
17 17 17 17 16 16 16 16 16 16 16 16 15 15 15 15 14 14 14 14 14 14 14 14 14 14 14 13 13 13 13 13 13 13 13 13 13 13 13 13 12 12 12
17 17 16 16 16 16 16 16 16 16 16 16 15 15 15 15 15 14 14 14 14 14 14 14 13 13 13 13 13 13 13 13 13 13 13 13 12 12 13 12 12 12 12
17 16 16 16 16 16 16 16 16 16 16 16 15 15 15 15 15 14 14 14 14 14 13 13 13 13 13 13 13 13 13 13 13 13 13 12 12 12 12 12 12 12 12
16 16 16 16 16 16 16 15 15 16 15 15 15 15 15 15 14 14 14 14 14 13 13 13 13 13 13 13 13 13 13 13 13 13 12 12 12 12 12 12 12 12 11
16 16 16 16 15 15 15 15 15 15 15 15 15 15 15 14 14 14 14 14 13 13 13 13 13 13 13 13 13 13 13 12 12 12 12 12 12 12 12 12 12 12 11
16 16 15 15 15 15 15 15 15 15 15 15 15 14 14 14 14 14 14 13 13 13 13 13 13 13 13 13 13 13 12 12 12 12 12 12 12 12 12 12 12 12 12
16 15 15 15 15 15 15 15 15 15 15 15 14 14 14 14 14 14 13 13 13 13 13 13 13 13 12 13 13 12 12 12 12 12 12 12 11 11 11 11 11 11 11
15 15 15 15 15 15 15 15 15 15 14 14 14 14 14 14 14 13 13 13 13 13 13 12 12 12 12 12 12 12 12 12 12 12 12 11 11 11 11 11 11 11 11
15 15 15 15 15 15 15 14 14 14 14 14 14 14 14 14 13 13 13 13 13 12 12 12 12 12 12 12 12 12 12 12 12 12 12 12 11 11 11 11 10 10 10
15 15 14 15 15 15 14 14 14 14 14 14 14 14 14 14 13 13 13 13 12 12 12 12 12 12 12 12 12 12 11 11 11 11 11 11 11 11 11 10 10 10 10
14 14 14 14 14 14 14 13 14 14 14 14 14 13 13 13 13 13 13 12 12 12 12 12 11 11 11 11 11 11 11 11 11 11 11 11 11 11 10 10 10 10 10
14 14 14 14 14 14 14 13 13 14 14 14 14 13 13 13 13 13 12 12 12 12 11 11 11 11 11 11 11 11 11 11 11 11 11 10 10 10 10 10 10 9 9
13 13 13 13 13 13 13 13 13 13 13 13 13 13 13 12 12 12 12 12 11 11 11 11 11 11 11 11 11 11 11 10 10 10 10 10 10 10 9 9 9 9 9
13 13 13 13 13 13 13 13 13 13 13 13 13 12 12 12 12 12 12 12 12 12 11 11 11 11 11 11 11 10 10 10 10 10 10 10 9 9 9 9 9 9 9
13 13 12 12 12 12 12 13 13 13 12 12 12 12 12 12 12 12 12 12 11 11 11 11 11 11 11 10 10 10 10 10 9 9 9 9 9 9 9 9 9 8 8
Wind_Speed
6 6 6 7 7 6 5 5 5 5 4 4 3 3 3 2 2 2 2 2 2 2 2 2 3 3 3 3 4 4 5 4 4 4 5 5 6 6 6 6 7 8 9
7 7 7 7 7 7 6 5 4 4 4 3 3 2 2 2 2 2 2 2 2 1 1 2 2 2 3 3 3 3 3 2 1 1 2 2 3 4 5 5 6 6 7
9 9 9 8 8 8 7 5 5 5 4 4 3 4 3 3 2 2 2 2 2 2 1 1 2 3 3 3 3 2 2 2 1 1 1 0 1 2 3 5 5 5 5
9 9 9 9 9 8 7 7 6 6 6 5 5 4 3 3 2 2 2 2 2 2 1 1 2 2 2 3 2 2 2 2 2 1 0 1 1 1 2 3 4 5 5
8 8 9 9 9 8 7 7 7 6 6 6 5 5 4 3 3 3 3 2 2 2 2 1 2 2 2 2 2 2 2 1 1 1 1 1 1 1 1 1 2 3 3
8 8 7 7 7 7 7 7 7 6 6 6 6 5 5 4 4 3 3 2 2 2 2 1 1 2 1 1 1 1 1 1 1 1 1 1 1 2 1 1 2 2 3
7 8 8 7 6 7 8 8 8 7 7 6 6 6 5 5 4 4 3 3 2 2 2 1 1 1 1 2 2 2 1 1 0 0 0 1 1 1 1 2 2 2 2
6 7 7 7 7 7 8 8 9 8 7 7 6 5 5 4 3 4 3 3 2 2 2 2 2 2 2 2 2 1 1 1 1 1 0 0 0 1 2 2 2 2 2
6 6 7 7 7 7 8 8 9 8 8 7 7 6 5 5 4 4 4 3 2 2 2 2 2 2 2 2 2 1 2 1 1 1 1 1 1 1 1 2 2 2 2
4 5 5 6 6 6 7 8 8 8 8 8 7 5 5 5 5 4 4 4 3 3 3 3 3 3 3 3 2 2 2 2 2 1 1 1 2 2 1 1 1 1 1
3 3 4 5 5 5 6 7 7 8 8 9 8 8 6 6 6 5 5 4 4 4 4 4 3 3 3 3 3 2 2 2 2 2 2 2 2 2 2 1 1 1 1
2 2 2 3 4 5 5 7 7 8 8 8 9 8 7 7 6 5 5 5 5 4 4 4 4 3 3 2 2 2 2 2 2 2 2 2 2 2 2 1 2 2 2
1 1 1 2 3 4 5 6 7 7 8 8 9 8 8 8 7 6 6 5 5 5 5 5 4 4 4 3 3 3 3 2 2 2 2 2 3 2 2 2 2 2 2
2 1 1 2 3 4 4 5 6 6 7 8 8 9 9 8 7 7 6 6 6 5 5 5 5 4 4 4 4 3 3 3 2 2 2 2 3 3 3 2 2 2 3
2 2 2 2 3 4 4 4 5 6 7 8 8 8 8 8 7 7 7 6 6 5 5 5 5 4 4 4 4 4 3 3 3 3 3 2 2 2 1 1 2 2 2
3 3 3 3 3 4 4 5 6 6 7 8 8 7 7 7 7 7 7 6 6 6 6 6 6 5 4 3 3 4 4 4 4 4 3 3 4 4 3 1 1 1 2
4 4 4 4 4 4 4 5 6 6 7 7 7 7 8 7 7 7 7 6 7 7 6 6 6 6 5 6 6 5 4 4 5 4 4 3 3 4 4 5 5 2 1
5 4 4 4 4 4 4 5 5 6 7 8 7 7 8 8 7 7 7 7 7 6 6 6 6 5 5 7 7 7 6 5 5 5 5 5 5 5 4 4 4 3 3
4 4 4 4 4 4 4 4 5 6 7 8 8 8 8 8 8 8 8 7 7 6 6 6 6 6 6 8 8 7 5 5 5 5 5 5 5 5 5 5 4 4 3
3 3 4 4 3 3 3 4 5 6 7 7 7 7 8 9 9 9 8 7 6 6 6 6 7 7 6 8 9 9 5 5 5 4 5 5 5 6 7 6 5 5 4
4 3 3 3 3 3 4 4 5 5 6 6 6 6 7 8 8 8 7 7 7 7 7 7 6 7 6 8 9 9 6 5 5 5 5 5 7 7 7 7 5 4 4
4 3 3 3 3 3 4 4 4 4 4 5 5 6 7 7 7 7 7 7 7 7 7 7 6 5 5 6 7 9 7 5 5 5 5 4 8 7 7 6 4 3 4
4 3 3 3 3 4 4 4 3 3 4 5 5 5 6 6 6 7 7 7 7 6 6 6 6 5 5 5 7 9 9 7 6 4 3 3 6 6 6 6 6 6 5
4 4 4 4 4 4 4 4 3 3 4 5 5 5 6 6 6 6 6 6 7 7 7 7 6 6 5 5 5 6 6 7 6 5 5 6 6 6 4 5 6 6 5
4 4 4 4 4 4 4 4 4 4 4 5 5 5 5 5 5 6 5 7 7 7 7 7 7 6 7 6 6 6 6 5 5 5 4 4 5 5 5 4 5 5 5
5 5 5 5 4 4 4 4 4 4 5 5 5 4 4 4 5 5 4 2 4 4 6 6 6 6 5 6 8 8 6 5 6 5 5 5 5 5 5 5 5 4 4
Wind_Direction
181 177 179 178 175 173 172 164 169 169 169 164 162 155 146 130 101 82 74 76 78 94 108 130 130 128 130 130 126 119 115 112 110 107 100 89 75 68 62 55 58 62 58
185 182 184 186 187 181 175 172 179 176 175 173 166 156 136 137 116 100 79 75 84 93 131 164 149 146 137 145 142 142 145 131 149 152 149 133 108 74 61 63 59 57 59
197 189 189 193 192 190 183 184 188 181 178 171 160 149 143 157 160 149 118 77 75 78 94 151 148 154 163 161 171 172 179 177 184 270 298 158 97 109 88 69 66 59 57
203 196 192 195 195 195 187 191 190 189 182 178 177 173 174 173 168 152 137 131 105 99 92 149 160 168 167 167 187 205 215 218 214 175 347 16 103 174 137 106 80 65 56
202 196 195 198 199 193 190 193 189 189 185 187 183 193 187 166 148 135 141 147 123 111 110 131 158 168 170 171 181 200 223 236 264 245 178 141 149 204 182 145 117 92 69
197 195 189 188 193 191 190 192 192 188 187 191 193 197 186 177 161 155 153 154 139 127 116 112 152 165 168 176 180 196 189 230 267 275 224 209 210 189 181 176 161 128 99
190 190 187 186 190 192 193 192 191 188 188 194 198 193 188 190 181 171 171 177 164 152 136 139 150 146 157 170 172 171 156 163 183 259 280 264 274 214 192 176 163 154 138
186 191 194 193 195 194 194 193 193 191 187 191 195 195 184 189 181 176 178 185 174 161 152 157 134 129 136 144 142 152 134 129 130 91 101 161 149 163 168 180 173 174 162
185 192 194 194 194 194 195 196 194 193 190 190 188 192 189 185 183 185 179 180 180 162 164 163 147 135 138 139 133 134 129 123 128 130 127 128 124 145 165 183 212 231 194
181 191 197 196 194 195 198 197 195 195 194 191 186 183 189 187 190 186 183 182 178 170 169 168 155 145 140 144 136 129 108 117 100 89 126 119 124 123 148 180 211 246 232
173 187 199 195 193 192 193 195 195 196 195 193 188 186 188 189 188 189 184 183 180 180 178 175 170 158 150 152 154 151 135 131 132 132 119 115 121 141 142 151 161 168 166
157 164 176 185 192 194 199 200 198 198 198 196 193 191 186 186 191 191 187 188 185 186 189 182 180 171 166 164 165 163 164 164 153 139 137 134 126 135 149 157 156 149 166
160 153 162 185 192 200 207 208 204 202 200 197 195 192 191 191 192 193 191 191 190 189 192 192 189 189 183 175 182 186 186 183 181 170 159 156 155 155 139 159 161 151 152
186 184 196 208 210 210 211 211 209 205 201 197 196 197 197 194 193 194 193 195 193 193 196 197 195 197 198 195 194 192 191 190 183 179 176 174 172 170 151 154 159 158 158
216 219 229 229 226 222 218 215 214 204 200 198 199 200 197 192 193 194 193 193 195 201 196 200 199 199 205 207 202 197 194 190 183 188 186 165 112 59 107 157 163 169 178
233 240 245 242 232 225 222 218 213 206 200 201 200 194 193 191 192 196 197 193 195 202 196 202 204 202 209 176 215 232 199 200 195 193 189 172 170 155 152 128 45 331 211
250 251 253 252 246 235 222 219 216 207 202 202 197 193 194 192 194 196 196 195 199 202 203 207 208 210 196 174 195 224 223 215 208 201 196 186 178 183 182 167 172 187 246
260 261 261 257 257 246 229 218 213 208 205 202 196 195 196 194 197 200 199 202 203 200 208 212 210 211 196 181 190 201 220 222 215 212 211 205 201 201 204 199 198 206 202
265 266 265 259 251 239 228 214 210 208 207 206 202 196 196 196 197 200 202 204 203 202 206 208 208 209 200 188 194 202 213 220 219 214 214 217 213 167 190 209 213 219 217
266 267 267 255 240 228 215 209 208 208 210 210 209 200 198 198 201 203 202 202 203 206 207 209 213 214 211 186 195 210 211 217 218 216 212 213 217 179 192 212 218 225 230
267 262 256 249 237 224 214 216 214 219 218 212 208 202 200 201 204 203 201 199 200 204 209 211 215 217 213 188 193 208 219 221 221 219 216 205 183 192 205 227 232 233 242
261 252 247 249 238 223 218 220 225 228 218 204 204 204 203 200 198 196 199 201 200 204 209 212 213 215 208 204 196 203 223 243 228 228 224 199 173 191 208 221 211 204 224
254 249 243 245 240 229 225 227 225 221 211 200 203 204 202 201 198 195 197 200 201 208 211 211 213 213 210 200 195 200 208 222 230 226 206 180 176 193 209 206 201 208 220
248 246 241 237 235 228 227 231 221 216 210 203 202 200 200 200 200 201 203 203 205 210 213 214 215 212 206 206 201 202 204 203 217 216 183 178 187 206 210 202 205 216 220
247 244 244 242 241 231 224 223 222 215 211 203 200 201 203 199 201 203 210 213 216 217 218 218 216 214 214 207 199 202 208 207 205 200 194 196 199 209 212 214 214 213 211
247 243 244 242 235 228 223 219 222 220 213 207 202 201 202 200 201 203 207 218 242 219 225 235 231 223 217 184 188 201 203 188 178 193 207 209 214 219 220 217 216 216 216
Height
1546 1547 1548 1550 1551 1552 1554 1555 1556 1557 1558 1559 1560 1561 1561 1561 1562 1562 1562 1562 1562 1563 1563 1563 1563 1563 1563 1563 1564 1564 1563 1564 1564 1564 1564 1564 1564 1564 1563 1562 1562 1561 1560
1544 1546 1547 1548 1550 1551 1552 1554 1555 1556 1557 1558 1559 1560 1560 1561 1561 1562 1562 1562 1562 1563 1563 1563 1563 1563 1563 1563 1564 1564 1564 1564 1564 1565 1565 1566 1567 1565 1565 1564 1563 1562 1561
1542 1544 1545 1547 1548 1550 1551 1553 1554 1555 1556 1557 1558 1559 1560 1560 1561 1561 1562 1562 1562 1562 1563 1563 1563 1563 1563 1564 1564 1564 1564 1565 1565 1565 1566 1566 1566 1566 1566 1565 1564 1563 1562
1540 1542 1543 1545 1547 1548 1550 1552 1553 1554 1556 1557 1558 1558 1559 1560 1561 1561 1561 1561 1562 1562 1562 1562 1563 1563 1563 1563 1564 1564 1564 1565 1565 1565 1564 1565 1565 1566 1567 1567 1565 1564 1563
1537 1539 1541 1543 1545 1547 1548 1550 1552 1553 1554 1556 1557 1558 1559 1559 1560 1560 1561 1561 1561 1562 1562 1562 1562 1563 1563 1563 1563 1563 1564 1564 1564 1565 1564 1564 1564 1565 1566 1566 1566 1566 1564
1534 1537 1539 1541 1543 1545 1546 1548 1550 1551 1553 1554 1555 1557 1558 1558 1559 1560 1560 1561 1561 1561 1562 1562 1562 1562 1563 1563 1563 1563 1563 1563 1563 1564 1564 1564 1564 1565 1565 1565 1566 1566 1565
1532 1534 1537 1538 1540 1542 1544 1546 1548 1549 1551 1552 1554 1556 1556 1558 1559 1559 1560 1561 1561 1561 1561 1561 1561 1562 1562 1562 1562 1562 1562 1563 1563 1563 1563 1563 1563 1564 1564 1565 1565 1565 1565
1530 1532 1534 1536 1538 1540 1541 1543 1545 1547 1549 1551 1552 1554 1555 1556 1557 1558 1559 1560 1560 1560 1560 1560 1561 1561 1561 1561 1561 1562 1561 1562 1562 1562 1562 1562 1562 1562 1563 1564 1564 1565 1565
1528 1530 1532 1534 1536 1537 1539 1541 1543 1545 1547 1549 1551 1552 1554 1555 1556 1557 1558 1558 1559 1560 1560 1560 1560 1560 1560 1561 1561 1561 1561 1561 1561 1561 1561 1561 1561 1561 1562 1562 1563 1565 1564
1527 1529 1530 1532 1534 1535 1537 1539 1541 1543 1545 1547 1549 1550 1552 1553 1555 1556 1556 1557 1558 1559 1559 1559 1559 1560 1560 1560 1560 1560 1560 1560 1560 1560 1560 1560 1560 1560 1560 1561 1561 1562 1563
1527 1528 1529 1530 1532 1533 1535 1537 1539 1541 1543 1545 1547 1548 1550 1552 1553 1554 1555 1556 1557 1557 1558 1558 1558 1559 1559 1559 1559 1559 1559 1559 1559 1559 1559 1559 1559 1560 1560 1560 1560 1560 1561
1526 1527 1528 1529 1530 1532 1533 1535 1537 1539 1540 1542 1544 1546 1548 1549 1551 1552 1553 1555 1555 1556 1557 1557 1557 1557 1557 1558 1558 1558 1558 1558 1558 1558 1558 1559 1558 1558 1559 1559 1559 1559 1559
1525 1526 1526 1527 1528 1530 1531 1533 1535 1536 1538 1540 1542 1544 1545 1547 1549 1550 1551 1552 1553 1554 1554 1555 1556 1556 1556 1556 1556 1557 1557 1557 1557 1557 1557 1558 1558 1558 1558 1557 1558 1558 1558
1524 1524 1525 1526 1527 1528 1529 1530 1532 1534 1535 1537 1539 1541 1543 1545 1546 1548 1549 1550 1551 1552 1552 1553 1553 1554 1554 1555 1555 1555 1555 1555 1556 1556 1556 1556 1557 1557 1557 1556 1557 1557 1557
1523 1523 1524 1524 1525 1526 1526 1528 1529 1531 1532 1534 1536 1538 1540 1542 1543 1545 1546 1547 1548 1549 1550 1550 1551 1552 1552 1553 1553 1553 1554 1554 1554 1554 1555 1555 1555 1555 1555 1555 1555 1555 1555
1521 1521 1522 1522 1522 1523 1524 1525 1526 1527 1529 1531 1533 1535 1537 1538 1540 1542 1543 1544 1545 1546 1547 1548 1549 1549 1550 1550 1551 1551 1552 1552 1553 1553 1553 1553 1553 1553 1553 1553 1554 1554 1554
1519 1519 1519 1520 1520 1520 1521 1522 1523 1524 1526 1528 1530 1531 1534 1535 1537 1539 1540 1541 1542 1543 1544 1545 1546 1547 1547 1548 1548 1549 1550 1550 1551 1551 1551 1551 1551 1551 1551 1551 1551 1552 1552
1516 1517 1517 1517 1517 1518 1518 1519 1520 1521 1523 1525 1526 1528 1530 1532 1534 1535 1537 1538 1539 1540 1541 1542 1543 1544 1544 1545 1546 1546 1547 1547 1548 1548 1549 1549 1549 1549 1549 1549 1549 1549 1549
1514 1514 1514 1515 1515 1515 1515 1516 1517 1518 1520 1521 1523 1525 1527 1528 1530 1531 1533 1534 1536 1537 1538 1539 1540 1540 1541 1542 1542 1543 1544 1544 1545 1545 1546 1546 1546 1546 1547 1547 1547 1547 1546
1511 1511 1511 1511 1512 1512 1512 1513 1514 1515 1516 1518 1520 1521 1523 1525 1526 1528 1529 1531 1532 1533 1534 1535 1536 1537 1538 1538 1539 1540 1540 1541 1541 1542 1542 1543 1543 1543 1544 1544 1544 1543 1543
1508 1508 1508 1509 1509 1509 1510 1510 1511 1512 1513 1514 1516 1518 1519 1521 1523 1524 1526 1527 1528 1530 1531 1532 1532 1533 1534 1535 1535 1536 1537 1537 1538 1538 1538 1539 1540 1540 1540 1540 1541 1540 1541
1505 1505 1505 1506 1506 1507 1507 1508 1508 1509 1510 1511 1512 1514 1516 1518 1519 1521 1522 1523 1525 1526 1527 1528 1529 1529 1530 1531 1531 1532 1533 1534 1534 1534 1535 1535 1536 1536 1536 1536 1537 1537 1537
1502 1502 1503 1503 1503 1504 1505 1505 1505 1506 1507 1508 1509 1511 1512 1514 1515 1517 1518 1519 1520 1522 1523 1524 1524 1525 1526 1526 1527 1528 1529 1530 1530 1530 1531 1531 1532 1532 1532 1532 1533 1533 1533
1499 1499 1499 1499 1500 1501 1501 1502 1502 1503 1504 1505 1506 1508 1509 1510 1512 1513 1514 1515 1516 1517 1518 1519 1520 1520 1521 1522 1523 1524 1525 1525 1526 1526 1527 1527 1528 1528 1528 1528 1528 1528 1528
1495 1495 1496 1496 1496 1497 1497 1498 1499 1500 1501 1502 1503 1504 1505 1507 1508 1509 1510 1511 1512 1513 1514 1515 1516 1516 1517 1518 1519 1519 1520 1521 1521 1522 1522 1523 1523 1524 1524 1524 1524 1524 1524
1491 1491 1492 1492 1492 1493 1493 1494 1495 1496 1498 1499 1500 1501 1502 1503 1504 1505 1506 1507 1508 1509 1510 1511 1512 1512 1513 1514 1514 1515 1516 1517 1518 1518 1518 1519 1519 1519 1519 1519 1519 1519 1519